When you browse on this site, cookies collect data to enhance your experience and personalize the content and advertising you see.
Visit our Privacy Policy to learn more. By continuing to use the site, you agree to this use of cookies and data.
  • In Hungary
  • List of Countries
  • For 7 days
  • Water Temperature
  • Weather Map
  • News
  • Weather Widgets
  • user-avatar
    Login

    Hourly Weather Babotki

    Today, 29 January, Wednesday

    Time Temperature Precipitation Wind Pressure Humidity
    00:00 -1°C° 0.1 mm 3 mps 737 mmHg 95%
    01:00 -1°C° 0.1 mm 4 mps 737 mmHg 95%
    02:00 -1°C° 0 mm 3 mps 737 mmHg 89%
    03:00 -2°C° 0 mm 4 mps 736 mmHg 89%
    04:00 -2°C° 0 mm 4 mps 736 mmHg 89%
    05:00 -2°C° 0 mm 4 mps 736 mmHg 89%
    06:00 -2°C° 0 mm 4 mps 736 mmHg 89%
    07:00 -2°C° 0 mm 4 mps 736 mmHg 90%
    08:00 -2°C° 0 mm 4 mps 736 mmHg 91%
    09:00 -2°C° 0.1 mm 4 mps 736 mmHg 90%
    10:00 -2°C° 0.1 mm 5 mps 735 mmHg 90%
    11:00 -1°C° 0.1 mm 5 mps 735 mmHg 89%
    12:00 -1°C° 0 mm 5 mps 735 mmHg 88%
    13:00 -1°C° 0 mm 5 mps 735 mmHg 87%
    14:00 -1°C° 0 mm 5 mps 735 mmHg 85%
    15:00 -1°C° 0 mm 5 mps 734 mmHg 89%
    16:00 -1°C° 0 mm 4 mps 734 mmHg 92%
    17:00 -1°C° 0 mm 4 mps 733 mmHg 95%
    18:00 -1°C° 0.1 mm 4 mps 733 mmHg 95%
    19:00 -1°C° 0.1 mm 4 mps 733 mmHg 96%
    20:00 -1°C° 0.1 mm 5 mps 733 mmHg 97%
    21:00 -1°C° 0.1 mm 5 mps 733 mmHg 96%
    22:00 -1°C° 0.1 mm 4 mps 733 mmHg 95%
    23:00 -1°C° 0.1 mm 4 mps 732 mmHg 95%

    Tomorrow, 30 January, Thursday

    Time Temperature Precipitation Wind Pressure Humidity
    00:00 -1°C° 0 mm 4 mps 732 mmHg 95%
    01:00 -1°C° 0 mm 4 mps 732 mmHg 96%
    02:00 -1°C° 0 mm 4 mps 732 mmHg 96%
    03:00 -1°C° 0.1 mm 4 mps 731 mmHg 96%
    04:00 -1°C° 0.1 mm 4 mps 731 mmHg 96%
    05:00 -1°C° 0.1 mm 4 mps 731 mmHg 96%
    06:00 -1°C° 0.1 mm 4 mps 731 mmHg 96%
    07:00 -1°C° 0.1 mm 4 mps 731 mmHg 96%
    08:00 -1°C° 0.1 mm 4 mps 731 mmHg 96%
    09:00 -1°C° 0.3 mm 4 mps 730 mmHg 96%
    10:00 -1°C° 0.3 mm 5 mps 730 mmHg 96%
    11:00 -2°C° 0.3 mm 5 mps 730 mmHg 96%
    12:00 -2°C° 0.5 mm 5 mps 730 mmHg 96%
    13:00 -2°C° 0.5 mm 5 mps 730 mmHg 96%
    14:00 -2°C° 0.5 mm 5 mps 730 mmHg 96%
    15:00 -2°C° 0.4 mm 5 mps 731 mmHg 96%
    16:00 -2°C° 0.4 mm 4 mps 731 mmHg 96%
    17:00 -2°C° 0.4 mm 4 mps 731 mmHg 97%
    18:00 -2°C° 0.3 mm 4 mps 731 mmHg 97%
    19:00 -1°C° 0.3 mm 3 mps 731 mmHg 97%
    20:00 -1°C° 0.3 mm 3 mps 732 mmHg 97%
    21:00 -1°C° 0.3 mm 3 mps 732 mmHg 97%
    22:00 -2°C° 0.3 mm 3 mps 732 mmHg 97%
    23:00 -2°C° 0.3 mm 2 mps 732 mmHg 97%

    Day after tomorrow, 31 January, Friday

    Time Temperature Precipitation Wind Pressure Humidity
    00:00 -2°C° 0.3 mm 2 mps 732 mmHg 97%
    01:00 -2°C° 0.3 mm 2 mps 732 mmHg 97%
    02:00 -2°C° 0.3 mm 2 mps 732 mmHg 97%
    03:00 -2°C° 0.2 mm 2 mps 732 mmHg 97%
    04:00 -2°C° 0.2 mm 2 mps 732 mmHg 97%
    05:00 -3°C° 0.2 mm 2 mps 732 mmHg 97%
    06:00 -3°C° 0.1 mm 2 mps 732 mmHg 97%
    07:00 -3°C° 0.1 mm 2 mps 732 mmHg 97%
    08:00 -1°C° 0.1 mm 1 mps 732 mmHg 97%
    09:00 0°C° 0.1 mm 1 mps 732 mmHg 96%
    10:00 -2°C° 0.1 mm 2 mps 732 mmHg 95%
    11:00 -1°C° 0.1 mm 2 mps 732 mmHg 94%
    12:00 -1°C° 0.1 mm 2 mps 733 mmHg 94%
    13:00 -1°C° 0.1 mm 2 mps 733 mmHg 93%
    14:00 -1°C° 0.1 mm 2 mps 733 mmHg 93%
    15:00 +1°C° 0 mm 1 mps 733 mmHg 92%
    16:00 +1°C° 0 mm 1 mps 733 mmHg 92%
    17:00 0°C° 0 mm 1 mps 734 mmHg 92%
    18:00 0°C° 0 mm 1 mps 734 mmHg 91%
    19:00 0°C° 0 mm 1 mps 735 mmHg 91%
    20:00 0°C° 0 mm 1 mps 735 mmHg 91%
    21:00 -1°C° 0 mm 1 mps 735 mmHg 91%
    22:00 -1°C° 0 mm 1 mps 735 mmHg 91%
    23:00 -1°C° 0 mm 1 mps 736 mmHg 91%

    1 February, Saturday

    Time Temperature Precipitation Wind Pressure Humidity
    00:00 -1°C° 0 mm 1 mps 736 mmHg 91%
    01:00 -2°C° 0 mm 1 mps 737 mmHg 92%
    02:00 -2°C° 0 mm 1 mps 737 mmHg 92%
    03:00 -2°C° 0 mm 1 mps 737 mmHg 93%
    04:00 -2°C° 0 mm 1 mps 737 mmHg 93%
    05:00 -2°C° 0 mm 1 mps 738 mmHg 94%
    06:00 -2°C° 0 mm 1 mps 738 mmHg 94%
    07:00 -2°C° 0 mm 1 mps 738 mmHg 95%
    08:00 -2°C° 0 mm 1 mps 738 mmHg 95%
    09:00 -3°C° 0 mm 2 mps 738 mmHg 93%
    10:00 -2°C° 0 mm 2 mps 738 mmHg 92%
    11:00 -1°C° 0 mm 2 mps 739 mmHg 90%
    12:00 -1°C° 0 mm 2 mps 739 mmHg 90%
    13:00 -1°C° 0 mm 3 mps 739 mmHg 90%
    14:00 0°C° 0 mm 3 mps 738 mmHg 90%
    15:00 0°C° 0 mm 3 mps 738 mmHg 91%
    16:00 -1°C° 0 mm 3 mps 738 mmHg 92%
    17:00 -1°C° 0 mm 3 mps 738 mmHg 93%
    18:00 -2°C° 0 mm 4 mps 738 mmHg 93%
    19:00 -2°C° 0 mm 4 mps 738 mmHg 94%
    20:00 -2°C° 0 mm 4 mps 738 mmHg 95%
    21:00 -1°C° 0 mm 4 mps 737 mmHg 96%
    22:00 -1°C° 0 mm 5 mps 737 mmHg 97%
    23:00 -1°C° 0 mm 5 mps 737 mmHg 97%

    2 February, Sunday

    Time Temperature Precipitation Wind Pressure Humidity
    00:00 -1°C° 0 mm 5 mps 736 mmHg 97%
    01:00 0°C° 0 mm 5 mps 736 mmHg 96%
    02:00 -1°C° 0 mm 6 mps 736 mmHg 96%
    03:00 -1°C° 0 mm 6 mps 735 mmHg 96%
    04:00 -1°C° 0 mm 6 mps 734 mmHg 95%
    05:00 -1°C° 0 mm 6 mps 733 mmHg 95%
    06:00 +1°C° 0.3 mm 6 mps 733 mmHg 95%
    07:00 +1°C° 0.3 mm 6 mps 733 mmHg 96%
    08:00 +1°C° 0.3 mm 6 mps 732 mmHg 96%
    09:00 +1°C° 0.9 mm 6 mps 732 mmHg 96%
    10:00 +1°C° 0.9 mm 6 mps 732 mmHg 96%
    11:00 +1°C° 0.9 mm 6 mps 731 mmHg 96%
    12:00 +1°C° 1 mm 5 mps 732 mmHg 97%
    13:00 +1°C° 1 mm 4 mps 732 mmHg 97%
    14:00 +1°C° 1 mm 4 mps 732 mmHg 97%
    15:00 +1°C° 0.2 mm 4 mps 732 mmHg 94%
    16:00 +1°C° 0.2 mm 4 mps 732 mmHg 91%
    17:00 +1°C° 0.2 mm 4 mps 732 mmHg 88%
    18:00 +1°C° 0 mm 4 mps 733 mmHg 89%
    19:00 +1°C° 0 mm 4 mps 733 mmHg 90%
    20:00 +1°C° 0 mm 4 mps 733 mmHg 91%
    21:00 +1°C° 0.1 mm 4 mps 733 mmHg 92%
    22:00 +1°C° 0.1 mm 4 mps 733 mmHg 94%
    23:00 +1°C° 0.1 mm 4 mps 733 mmHg 95%

    3 February, Monday

    Time Temperature Precipitation Wind Pressure Humidity
    00:00 +1°C° 0.1 mm 4 mps 733 mmHg 96%
    01:00 +1°C° 0.1 mm 4 mps 732 mmHg 96%
    02:00 +1°C° 0.1 mm 3 mps 732 mmHg 97%
    03:00 +1°C° 0.2 mm 4 mps 732 mmHg 97%
    04:00 +1°C° 0.2 mm 4 mps 732 mmHg 96%
    05:00 +1°C° 0.2 mm 4 mps 732 mmHg 96%
    06:00 0°C° 0.2 mm 4 mps 733 mmHg 95%
    07:00 0°C° 0.2 mm 4 mps 733 mmHg 95%
    08:00 +1°C° 0.2 mm 3 mps 733 mmHg 94%
    09:00 0°C° 0 mm 4 mps 734 mmHg 89%
    10:00 0°C° 0 mm 4 mps 734 mmHg 85%
    11:00 0°C° 0 mm 5 mps 735 mmHg 80%
    12:00 0°C° 0 mm 5 mps 735 mmHg 78%
    13:00 0°C° 0 mm 4 mps 735 mmHg 76%
    14:00 0°C° 0 mm 4 mps 735 mmHg 74%
    15:00 -1°C° 0 mm 4 mps 736 mmHg 77%
    16:00 -1°C° 0 mm 4 mps 736 mmHg 80%
    17:00 -1°C° 0 mm 3 mps 736 mmHg 84%
    18:00 -1°C° 0 mm 3 mps 736 mmHg 86%
    19:00 -1°C° 0 mm 3 mps 737 mmHg 88%
    20:00 -2°C° 0 mm 3 mps 737 mmHg 90%
    21:00 -3°C° 0 mm 4 mps 737 mmHg 89%
    22:00 -3°C° 0 mm 4 mps 738 mmHg 88%
    23:00 -3°C° 0 mm 4 mps 738 mmHg 87%
    Show more